Flag Weather past 2 weeks in Bandar-Abbas, Iran

Now
79 °F

Fog.


Feels Like: 82 °F
Forecast: 65 / 79 °F
Wind: 14 mph from Southwest

Location: Bandarabbass

Current Time: Nov 23, 2014 at 6:30:59 PM

Latest Report: Nov 23, 2014 at 6:00 PM


Visibility: 3 mi

Pressure: 29.86 "Hg

Humidity: 84%

Dew point: 73 °F

Location of Bandar-AbbasLocation

Historic Weather in Bandar-Abbas — Graph

°F

Bandar-Abbas temperature yesterday

Maximum temperature yesterday: 84 °F (at 1:00 PM)
Minimum temperature yesterday: 57 °F (at 6:00 AM)
Average temperature yesterday: 74 °F

Past Weeks' High & Low Weather Summary

 TemperatureHumidityPressure
High133 °F (Nov 10, 5:00 PM)88% (Nov 19, 10:30 PM)30.21 "Hg (Nov 19, 10:30 PM)
Low50 °F (Nov 11, 4:30 AM)4% (Nov 10, 5:00 PM)29.86 "Hg (Nov 23, 1:00 PM)
Average73 °F43%30.01 "Hg
* Reported Nov 8 6:00 PM — Nov 23 5:30 PM, Bandar-Abbas, Weather by CustomWeather, © 2014

Note: Actual official high and low records may vary slightly from our data, if they occured in-between our weather recording intervals... More about our weather records

Advertising

Bandar-Abbas weather history for previous 24 hours

 ConditionsComfort  
Time TempWeatherWind HumidityBarometerVisibility
5:30 PM
Nov 23
79 °FFog.16 mph84%29.86 "Hg3 mi
5:00 PM79 °FFog.16 mph84%29.86 "Hg3 mi
4:30 PM79 °FSandstorm.16 mph84%29.86 "Hg3 mi
4:00 PM81 °FSandstorm.16 mph79%29.86 "Hg3 mi
3:30 PM81 °FHaze.12 mph70%29.86 "Hg3 mi
3:00 PM81 °FScattered clouds.12 mph70%29.86 "Hg4 mi
2:30 PM81 °FScattered clouds.14 mph70%29.86 "Hg4 mi
2:00 PM81 °FScattered clouds.12 mph70%29.86 "Hg4 mi
1:30 PM82 °FScattered clouds.14 mph62%29.86 "Hg4 mi
1:00 PM82 °FPassing clouds.16 mph66%29.86 "Hg4 mi
12:30 PM81 °FPassing clouds.9 mph66%29.89 "Hg4 mi
12:00 PM81 °FPassing clouds.9 mph66%29.92 "Hg4 mi
11:30 AM81 °FSunny.9 mph66%29.92 "Hg4 mi
11:00 AM81 °FSunny.5 mph66%29.95 "Hg4 mi
10:30 AM81 °FSunny.5 mph62%29.95 "Hg4 mi
10:00 AM81 °FSunny.5 mph62%29.95 "Hg4 mi
9:30 AM77 °FSunny.5 mph69%29.95 "Hg4 mi
9:00 AM77 °FClear.7 mph69%29.95 "Hg4 mi
8:30 AM75 °FClear.9 mph74%29.95 "Hg4 mi
8:00 AM73 °FClear.7 mph78%29.95 "Hg4 mi
7:30 AM70 °FFog.5 mph83%29.95 "Hg4 mi
7:00 AM68 °FFog.7 mph83%29.92 "Hg3 mi
6:30 AM68 °FFog.9 mph88%29.92 "Hg3 mi
6:00 AM68 °FClear.7 mph83%29.92 "Hg4 mi
5:30 AM66 °FClear.5 mph83%29.92 "Hg4 mi
4:30 AM68 °FClear.7 mph83%29.92 "Hg4 mi
3:30 AM68 °FClear.7 mph83%29.89 "Hg4 mi
2:30 AM68 °FClear.7 mph78%29.89 "Hg4 mi
1:30 AM68 °FClear.9 mph78%29.92 "Hg4 mi
1:00 AM68 °FClear.7 mph78%29.92 "Hg4 mi
12:30 AM68 °FClear.7 mph78%29.92 "Hg4 mi
12:00 AM68 °FClear.7 mph78%29.92 "Hg4 mi
11:30 PM
Nov 22
68 °FClear.7 mph78%29.92 "Hg4 mi
11:00 PM68 °FClear.7 mph78%29.92 "Hg4 mi
10:30 PM68 °FClear.5 mph78%29.92 "Hg4 mi
9:54 PM70 °FClear.5 mph73%29.92 "Hg4 mi
9:00 PM72 °FClear.5 mph69%29.92 "Hg4 mi
8:30 PM73 °FClear.7 mph69%29.92 "Hg4 mi
8:00 PM75 °FClear.No wind65%29.92 "Hg5 mi
7:30 PM77 °FClear.9 mph61%29.92 "Hg5 mi
7:00 PM77 °FClear.7 mph61%29.92 "Hg5 mi
6:30 PM79 °FClear.12 mph61%29.89 "Hg5 mi
6:00 PM79 °FClear.12 mph58%29.89 "Hg5 mi
Weather by CustomWeather, © 2014

See weather overviewHow to use our weather pages